Regional Weather Roundup
Issued by NWS

Home | Current Version | Previous Version | Text Only | Print | Product List | Glossary Off
Versions: 1 2 3 4 5 6 7 8 9 10 11 12 13 14 15 16 17 18 19 20 21 22 23 24 25 26 27 28 29 30 31 32 33 34 35 36 37 38 39 40 41 42 43 44 45 46 47 48 49 50

000
ASUS43 KMPX 010101
RWRMN
WEATHER ROUNDUP FOR MINNESOTA
NATIONAL WEATHER SERVICE TWIN CITIES/CHANHASSEN MN
800 PM CDT FRI JUL 31 2015


NOTE: "FAIR" INDICATES FEW OR NO CLOUDS BELOW 12,000 FEET WITH NO
SIGNIFICANT WEATHER AND/OR OBSTRUCTIONS TO VISIBILITY. N/A MEANS
CURRENT SKY AND/OR WEATHER CONDITIONS ARE NOT AVAILABLE.

MNZ060>063-068>070-010200-
   Twin Cities Metro

CITY           SKY/WX    TMP DP  RH WIND       PRES   REMARKS
TWIN CITIES    PTCLDY    79  54  41 W12G21    29.98S
ST PAUL        PTCLDY    78  53  41 NW14G22   29.97S
CRYSTAL        PTCLDY    79  54  41 W9        29.97S
BLAINE         PTCLDY    79  54  41 NW7       29.97S
LAKEVILLE      CLEAR     73  57  56 W5        30.00S
EDEN PRAIRIE   CLEAR     77  56  48 W8        29.98S
SOUTH ST PAUL  CLEAR     79  50  36 W9        29.97S
LAKE ELMO      FAIR      75  54  46 NW6       29.99R
$$
MNZ001>005-007-008-013>017-022>024-027-028-010200-
   Northwest Minnesota

CITY           SKY/WX    TMP DP  RH WIND       PRES   REMARKS
BEMIDJI        CLEAR     73  49  43 NW14      29.97S
HALLOCK        CLEAR     73  54  49 NW5       29.94F
ROSEAU         CLEAR     72  55  56 NW8       29.95S
WARROAD        CLEAR     72  54  53 W7        29.94S
THIEF RVR FALL MOCLDY    73  50  43 NW7       29.97S
CROOKSTON      CLEAR     75  55  50 NW6       29.97S
FOSSTON        CLEAR     73  50  43 CALM      29.98S
DETROIT LAKES  CLEAR     75  55  50 NW8       30.00F
MOORHEAD       CLEAR     75  61  60 N3        29.98S
PARK RAPIDS    CLEAR     74  50  42 NW9       29.98F
MAHNOMEN       FAIR      73  53  47 NW6       29.98F
$$
MNZ006-009>011-018-025>026-010200-
   North Central Minnesota

CITY           SKY/WX    TMP DP  RH WIND       PRES   REMARKS
BAUDETTE       CLEAR     71  49  45 NW15      29.93R
FLAG ISLAND    PTCLDY    72  54  53 W17       29.90S
INTL FALLS     PTCLDY    71  51  49 W10G22    29.90S
WASKISH        CLEAR     72  52  49 W16G24    29.95R
BIG FORK       CLEAR     72  48  43 W3        29.94S
LONGVILLE      CLEAR     72  52  49 W7        29.97S
GRAND RAPIDS   CLEAR     73  46  38 NW16G23   29.95S
CRANE LAKE     MOCLDY    64  57  77 CALM      29.91S
ORR            PTCLDY    72  48  43 NW9       29.89S
COOK           PTCLDY    72  52  49 W9        29.91S
WALKER         FAIR      72  51  47 NW7       29.96F
$$
MNZ012-019>021-037-010200-
   Northeast Minnesota

CITY           SKY/WX    TMP DP  RH WIND       PRES   REMARKS
DULUTH         PTCLDY    73  48  41 NW13      29.92S
ELY            MOCLDY    64  55  72 NW3       29.90R
HIBBING        CLEAR     72  47  40 W12       29.92F
EVELETH        CLEAR     72  48  43 W12       29.93S
DULUTH HARBOR  CLEAR     77  52  41 W15       29.90S
TWO HARBORS    PTCLDY    75  55  50 W5        29.88S
SILVER BAY     CLEAR     68  57  68 CALM      29.88R
GRAND MARAIS     N/A     69  54  58 VRB3      29.84R
G MARAIS ARPRT   N/A     63  52  67 W8        29.89R
$$
MNZ029>031-032-039>041-046>048-054>057-064-010200-
   West Central Minnesota

CITY           SKY/WX    TMP DP  RH WIND       PRES   REMARKS
FERGUS FALLS   CLEAR     75  61  60 N5        29.97F
WHEATON        CLEAR     79  63  57 CALM      30.00F
MORRIS         CLEAR     79  63  57 CALM      29.99F
ALEXANDRIA     CLEAR     76  57  51 NW6       30.02F
ELBOW LAKE     FAIR      76  62  62 CALM      29.99F
WADENA         CLEAR     75  54  46 NW5       29.99S
GLENWOOD       CLEAR     75  57  53 W3        30.02S
APPLETON       CLEAR     81  57  44 CALM      29.99F
BENSON         CLEAR     77  61  57 CALM      30.00F
ORTONVILLE     CLEAR     81  59  47 CALM      30.00F
MADISON        CLEAR     75  64  69 S3        30.01S
WILLMAR        FAIR      77  63  61 SW3       30.02F
$$
MNZ033>034-036-042>043-049>051-058-059-010200-
   Central Minnesota

CITY           SKY/WX    TMP DP  RH WIND       PRES   REMARKS
ST CLOUD       CLEAR     77  54  44 NW9       29.98F
SAUK CENTRE    FAIR      74  59  58 W3        30.00F
PAYNESVILLE    CLEAR     73  58  59 SW3       30.01F
AITKIN         CLEAR     73  52  46 W3        29.95S
PINE RIVER     CLEAR     75  50  41 NW7       30.00S
BRAINERD       CLEAR     76  48  37 NW9       29.98S
STAPLES        PTCLDY    73  54  49 NW7       29.99S
LONG PRAIRIE   FAIR      73  54  49 W5        30.01S
LITTLE FALLS   CLEAR     77  50  38 W7        29.99S
LITCHFIELD     CLEAR     77  61  57 CALM      30.01F
BUFFALO        CLEAR     76  55  46 W6        30.00S
MAPLE LAKE     CLEAR     77  57  50 W5        30.00F
$$
MNZ037-044-045-052-053-010200-
   East Central Minnesota

CITY           SKY/WX    TMP DP  RH WIND       PRES   REMARKS
PRINCETON      CLEAR     77  57  50 W3        29.98S
MORA           CLEAR     73  46  38 W7        29.98S
CAMBRIDGE      PTCLDY    77  57  50 W3        29.96R
RUSH CITY      CLEAR     73  54  51 CALM      29.96S
MOOSE LAKE     CLEAR     72  50  46 W5        29.93S
HINCKLEY       FAIR      73  54  49 W3        29.95F
CLOQUET        CLEAR     73  45  35 W8        29.93F
MCGREGOR       CLEAR     73  48  40 W8        29.96S
$$
MNZ071>073-080-081-089-090-097-098-010200-
   Southwest Minnesota

CITY           SKY/WX    TMP DP  RH WIND       PRES   REMARKS
MONTEVIDEO     CLEAR     79  55  44 CALM      30.03S
GRANITE FALLS  CLEAR     77  59  52 CALM      30.03S
CANBY          CLEAR     76  64  66 SE3       30.03S
MARSHALL       CLEAR     79  57  47 SE6       30.05S
REDWOOD FALLS  CLEAR     77  59  53 W5        30.02S
OLIVIA         CLEAR     73  59  60 CALM      30.02S
PIPESTONE      CLEAR     75  64  69 SW3       30.07S
WINDOM         CLEAR     79  59  50 CALM      30.05S
WORTHINGTON    CLEAR     75  57  53 SW6       30.06F
JACKSON        CLEAR     77  63  61 CALM      30.07S
TRACY          CLEAR     79  63  57 CALM      30.04S
SLAYTON        CLEAR     76  62  63 CALM      30.06F
$$
MNZ065>067-074>077-082>085-091>093-010200-
   South Central Minnesota

CITY           SKY/WX    TMP DP  RH WIND       PRES   REMARKS
MANKATO        CLEAR     75  55  50 W6        30.02S
NEW ULM        CLEAR     75  57  53 CALM      30.03R
ST JAMES       CLEAR     73  64  73 W3        30.04S
FAIRMONT       CLEAR     77  54  44 CALM      30.04F
GLENCOE        CLEAR     76  61  58 CALM      30.01S
FARIBAULT      CLEAR     73  61  64 W5        30.02S
OWATONNA       CLEAR     73  61  64 W5        30.02S
WASECA         CLEAR     72  61  68 W5        30.04S
ALBERT LEA     CLEAR     75  61  60 CALM      30.04S
$$
MNZ078>079-086>088-094>096-010200-
   Southeast Minnesota

CITY           SKY/WX    TMP DP  RH WIND       PRES   REMARKS
ROCHESTER      CLEAR     72  57  59 W8        30.02S
RED WING       CLEAR     75  55  50 NW3       29.97R
STANTON        CLEAR     75  56  52 W5        29.99S
DODGE CENTER   CLEAR     73  55  53 NW5       30.02F
WINONA         CLEAR     77  54  44 CALM      29.98R
AUSTIN         CLEAR     75  57  53 W6        30.03S
PRESTON        CLEAR     71  56  58 NW6       30.03S
$$
ABBREVIATIONS USED IN REMARKS
   TC - TEMPERATURES IN CELSIUS
  WCI - WIND CHILL INDEX
   HX - HEAT INDEX
  VSB - VISIBILITY
$$



USA.gov is the U.S. government's official web portal to all federal, state and local government web resources and services.